This is the latest recevied weather packets stored in our database for station/object N1YZ. If no packets are shown the sender has not sent any weather packets the latest 10 day(s).
| Time | Temp. | Humidity | Pressure | Rain* | Wind** | Luminosity | Snow |
|---|---|---|---|---|---|---|---|
| 1777472851 | 20° C | 99% | 1034.3 hPa | 0 mm | - | 170 W/m² | - |
| 1777472547 | 19.44° C | 99% | 1034 hPa | 0 mm | - | 140 W/m² | - |
| 1777472244 | 19.44° C | 99% | 1034.1 hPa | 0 mm | - | 188 W/m² | - |
| 1777471940 | 19.44° C | 99% | 1034 hPa | 0 mm | - | 223 W/m² | - |
| 1777471638 | 19.44° C | 99% | 1034.5 hPa | 0 mm | - | 85 W/m² | - |
| 1777471334 | 19.44° C | 99% | 1034.2 hPa | 0 mm | - | 56 W/m² | - |
| 1777471031 | 18.89° C | 99% | 1034.1 hPa | 0 mm | - | 50 W/m² | - |
| 1777470727 | 18.89° C | 99% | 1034.3 hPa | 0 mm | - | 77 W/m² | - |
| 1777470423 | 18.89° C | 99% | 1034.3 hPa | 0 mm | - | 99 W/m² | - |
| 1777470120 | 18.89° C | 99% | 1034.2 hPa | 0 mm | - | 38 W/m² | - |
| 1777469816 | 18.89° C | 99% | 1035.1 hPa | 0 mm | - | 37 W/m² | - |
| 1777469512 | 18.33° C | 99% | 1035 hPa | 0 mm | - | 45 W/m² | - |
| 1777469207 | 18.33° C | 99% | 1034.7 hPa | 0 mm | - | 35 W/m² | - |
| 1777468901 | 18.33° C | 99% | 1034.6 hPa | 0 mm | - | 27 W/m² | - |
| 1777468598 | 18.33° C | 99% | 1035 hPa | 0 mm | - | 34 W/m² | - |
| 1777468295 | 18.33° C | 99% | 1035 hPa | 0 mm | - | 25 W/m² | - |
| 1777467991 | 18.33° C | 99% | 1035 hPa | 0 mm | - | 45 W/m² | - |
| 1777467687 | 18.33° C | 99% | 1035.1 hPa | 0 mm | - | 67 W/m² | - |
| 1777467382 | 18.33° C | 99% | 1034.7 hPa | 0 mm | - | 50 W/m² | - |
| 1777467078 | 18.33° C | 99% | 1034.7 hPa | 0 mm | - | 30 W/m² | - |
| 1777466776 | 18.33° C | 99% | 1034.4 hPa | 0 mm | - | 24 W/m² | - |
| 1777466474 | 17.78° C | 99% | 1034.4 hPa | 0 mm | - | 44 W/m² | - |
| 1777466170 | 17.78° C | 99% | 1034.4 hPa | 0 mm | - | 43 W/m² | - |
| 1777465866 | 17.78° C | 99% | 1034.2 hPa | 0 mm | - | 44 W/m² | - |
| 1777465563 | 17.78° C | 99% | 1034.2 hPa | 0 mm | - | 34 W/m² | - |
* Rain latest hour (hover to see other rain measurements)
** Current wind speed in m/s (hover to see current wind gust speed)